• En España
  • Lista de países
  • Para 7 días
  • Temperatura del agua
  • Mapa Satelital
  • El tiempo en el mapa
  • Informadores
  • user-avatar
    Iniciar sesión

    Tiempo cada hora Madrid

    Hoy, 21 Junio, Jueves

    Tiempo Temperatura Precipitaciones Viento Presión Humedad
    00:00 +26°C° 0 mm 4 mps 709 mmHg 45%
    01:00 +25°C° 0,1 mm 3 mps 709 mmHg 48%
    02:00 +24°C° 0,1 mm 3 mps 708 mmHg 50%
    03:00 +24°C° 0,1 mm 3 mps 708 mmHg 53%
    04:00 +24°C° 0,1 mm 3 mps 708 mmHg 53%
    05:00 +24°C° 0,1 mm 3 mps 708 mmHg 53%
    06:00 +24°C° 0 mm 3 mps 709 mmHg 52%
    07:00 +25°C° 0 mm 3 mps 709 mmHg 46%
    08:00 +27°C° 0 mm 2 mps 709 mmHg 41%
    09:00 +29°C° 0 mm 2 mps 709 mmHg 35%
    10:00 +30°C° 0 mm 2 mps 709 mmHg 32%
    11:00 +31°C° 0 mm 2 mps 709 mmHg 30%
    12:00 +32°C° 0 mm 2 mps 709 mmHg 27%
    13:00 +32°C° 0 mm 2 mps 709 mmHg 25%
    14:00 +34°C° 0 mm 2 mps 709 mmHg 23%
    15:00 +35°C° 0 mm 2 mps 708 mmHg 20%
    16:00 +35°C° 0 mm 2 mps 708 mmHg 21%
    17:00 +34°C° 0 mm 2 mps 708 mmHg 21%
    18:00 +34°C° 0 mm 2 mps 708 mmHg 21%
    19:00 +32°C° 0 mm 2 mps 708 mmHg 23%
    20:00 +30°C° 0 mm 2 mps 708 mmHg 26%
    21:00 +28°C° 0 mm 2 mps 708 mmHg 29%
    22:00 +27°C° 0 mm 2 mps 708 mmHg 31%
    23:00 +27°C° 0 mm 3 mps 709 mmHg 33%

    Mañana, 22 Junio, Viernes

    Tiempo Temperatura Precipitaciones Viento Presión Humedad
    00:00 +26°C° 0 mm 3 mps 709 mmHg 36%
    01:00 +25°C° 0 mm 3 mps 709 mmHg 38%
    02:00 +24°C° 0 mm 3 mps 708 mmHg 41%
    03:00 +24°C° 0 mm 3 mps 708 mmHg 43%
    04:00 +24°C° 0 mm 3 mps 708 mmHg 44%
    05:00 +24°C° 0 mm 3 mps 709 mmHg 45%
    06:00 +24°C° 0 mm 3 mps 709 mmHg 46%
    07:00 +26°C° 0 mm 3 mps 709 mmHg 41%
    08:00 +27°C° 0 mm 3 mps 709 mmHg 36%
    09:00 +29°C° 0 mm 3 mps 709 mmHg 31%
    10:00 +31°C° 0 mm 3 mps 709 mmHg 28%
    11:00 +33°C° 0 mm 3 mps 709 mmHg 25%
    12:00 +34°C° 0 mm 3 mps 709 mmHg 23%
    13:00 +35°C° 0 mm 3 mps 709 mmHg 21%
    14:00 +35°C° 0 mm 2 mps 708 mmHg 20%
    15:00 +36°C° 0 mm 2 mps 708 mmHg 19%
    16:00 +36°C° 0 mm 2 mps 708 mmHg 19%
    17:00 +35°C° 0 mm 2 mps 708 mmHg 19%
    18:00 +35°C° 0 mm 2 mps 708 mmHg 19%
    19:00 +34°C° 0 mm 2 mps 708 mmHg 22%
    20:00 +31°C° 0 mm 2 mps 708 mmHg 25%
    21:00 +29°C° 0 mm 2 mps 708 mmHg 28%
    22:00 +28°C° 0 mm 3 mps 708 mmHg 34%
    23:00 +27°C° 0 mm 3 mps 708 mmHg 40%

    Pasado mañana, 23 Junio, Sábado

    Tiempo Temperatura Precipitaciones Viento Presión Humedad
    00:00 +26°C° 0 mm 3 mps 708 mmHg 46%
    01:00 +25°C° 0 mm 3 mps 708 mmHg 48%
    02:00 +25°C° 0 mm 3 mps 708 mmHg 50%
    03:00 +24°C° 0 mm 3 mps 708 mmHg 53%
    04:00 +24°C° 0 mm 3 mps 708 mmHg 51%
    05:00 +24°C° 0 mm 3 mps 708 mmHg 49%
    06:00 +24°C° 0 mm 3 mps 708 mmHg 47%
    07:00 +26°C° 0 mm 3 mps 709 mmHg 41%
    08:00 +28°C° 0 mm 3 mps 709 mmHg 35%
    09:00 +30°C° 0 mm 3 mps 709 mmHg 29%
    10:00 +33°C° 0 mm 3 mps 709 mmHg 27%
    11:00 +34°C° 0 mm 3 mps 709 mmHg 25%
    12:00 +35°C° 0 mm 3 mps 709 mmHg 23%
    13:00 +36°C° 0 mm 2 mps 708 mmHg 21%
    14:00 +37°C° 0 mm 2 mps 708 mmHg 20%
    15:00 +37°C° 0 mm 2 mps 708 mmHg 18%
    16:00 +37°C° 0 mm 2 mps 707 mmHg 18%
    17:00 +37°C° 0 mm 2 mps 707 mmHg 18%
    18:00 +37°C° 0 mm 2 mps 707 mmHg 18%
    19:00 +35°C° 0 mm 2 mps 707 mmHg 21%
    20:00 +32°C° 0 mm 2 mps 707 mmHg 24%
    21:00 +30°C° 0 mm 3 mps 708 mmHg 27%
    22:00 +29°C° 0 mm 3 mps 708 mmHg 31%
    23:00 +28°C° 0 mm 3 mps 708 mmHg 35%

    24 Junio, Domingo

    Tiempo Temperatura Precipitaciones Viento Presión Humedad
    00:00 +27°C° 0 mm 3 mps 708 mmHg 38%
    01:00 +26°C° 0 mm 3 mps 707 mmHg 42%
    02:00 +26°C° 0 mm 3 mps 707 mmHg 45%
    03:00 +25°C° 0 mm 3 mps 707 mmHg 48%
    04:00 +25°C° 0 mm 3 mps 707 mmHg 51%
    05:00 +25°C° 0 mm 3 mps 707 mmHg 54%
    06:00 +24°C° 0 mm 3 mps 707 mmHg 57%
    07:00 +26°C° 0 mm 3 mps 708 mmHg 51%
    08:00 +28°C° 0 mm 3 mps 708 mmHg 45%
    09:00 +30°C° 0 mm 2 mps 708 mmHg 39%
    10:00 +31°C° 0 mm 2 mps 708 mmHg 34%
    11:00 +34°C° 0 mm 2 mps 708 mmHg 30%
    12:00 +36°C° 0 mm 2 mps 708 mmHg 25%
    13:00 +37°C° 0 mm 2 mps 707 mmHg 23%
    14:00 +37°C° 0 mm 2 mps 707 mmHg 21%
    15:00 +38°C° 0 mm 2 mps 707 mmHg 18%
    16:00 +38°C° 0 mm 2 mps 706 mmHg 19%
    17:00 +38°C° 0 mm 2 mps 706 mmHg 19%
    18:00 +37°C° 0 mm 2 mps 706 mmHg 19%
    19:00 +35°C° 0 mm 2 mps 706 mmHg 22%
    20:00 +32°C° 0 mm 2 mps 706 mmHg 24%
    21:00 +31°C° 0 mm 2 mps 706 mmHg 27%
    22:00 +29°C° 0,1 mm 2 mps 706 mmHg 31%
    23:00 +28°C° 0,1 mm 2 mps 706 mmHg 36%

    25 Junio, Lunes

    Tiempo Temperatura Precipitaciones Viento Presión Humedad
    00:00 +27°C° 0,1 mm 3 mps 706 mmHg 41%
    01:00 +27°C° 0,1 mm 2 mps 706 mmHg 44%
    02:00 +26°C° 0,1 mm 2 mps 706 mmHg 47%
    03:00 +25°C° 0,1 mm 2 mps 705 mmHg 50%
    04:00 +25°C° 0,1 mm 2 mps 706 mmHg 51%
    05:00 +25°C° 0,1 mm 2 mps 706 mmHg 52%
    06:00 +25°C° 0,1 mm 1 mps 706 mmHg 53%
    07:00 +27°C° 0 mm 2 mps 706 mmHg 47%
    08:00 +29°C° 0 mm 2 mps 707 mmHg 42%
    09:00 +30°C° 0 mm 2 mps 707 mmHg 36%
    10:00 +33°C° 0 mm 3 mps 707 mmHg 33%
    11:00 +34°C° 0 mm 4 mps 707 mmHg 29%
    12:00 +35°C° 0 mm 4 mps 706 mmHg 26%
    13:00 +35°C° 0 mm 4 mps 706 mmHg 25%
    14:00 +36°C° 0 mm 5 mps 706 mmHg 23%
    15:00 +36°C° 0 mm 5 mps 706 mmHg 22%
    16:00 +36°C° 0 mm 5 mps 706 mmHg 23%
    17:00 +35°C° 0 mm 5 mps 706 mmHg 23%
    18:00 +35°C° 0 mm 5 mps 706 mmHg 24%
    19:00 +33°C° 0,1 mm 4 mps 706 mmHg 27%
    20:00 +32°C° 0,1 mm 4 mps 706 mmHg 29%
    21:00 +29°C° 0,1 mm 4 mps 706 mmHg 31%
    22:00 +28°C° 0 mm 3 mps 706 mmHg 34%
    23:00 +27°C° 0 mm 2 mps 706 mmHg 36%

    26 Junio, Martes

    Tiempo Temperatura Precipitaciones Viento Presión Humedad
    00:00 +26°C° 0 mm 2 mps 706 mmHg 38%
    01:00 +25°C° 0 mm 2 mps 706 mmHg 39%
    02:00 +24°C° 0 mm 1 mps 706 mmHg 40%
    03:00 +24°C° 0 mm 1 mps 705 mmHg 41%
    04:00 +24°C° 0 mm 1 mps 705 mmHg 41%
    05:00 +24°C° 0 mm 1 mps 706 mmHg 42%
    06:00 +24°C° 0 mm 1 mps 706 mmHg 42%
    07:00 +26°C° 0 mm 1 mps 706 mmHg 36%
    08:00 +27°C° 0 mm 2 mps 706 mmHg 31%
    09:00 +29°C° 0 mm 2 mps 706 mmHg 26%
    10:00 +30°C° 0 mm 3 mps 706 mmHg 23%
    11:00 +33°C° 0 mm 3 mps 706 mmHg 20%
    12:00 +34°C° 0 mm 4 mps 706 mmHg 18%
    13:00 +34°C° 0 mm 4 mps 705 mmHg 17%
    14:00 +35°C° 0 mm 4 mps 705 mmHg 16%
    15:00 +35°C° 0 mm 4 mps 705 mmHg 15%
    16:00 +35°C° 0 mm 5 mps 705 mmHg 16%
    17:00 +35°C° 0 mm 5 mps 704 mmHg 16%
    18:00 +34°C° 0 mm 5 mps 704 mmHg 17%
    19:00 +32°C° 0 mm 4 mps 705 mmHg 21%
    20:00 +29°C° 0 mm 4 mps 705 mmHg 24%
    21:00 +27°C° 0 mm 4 mps 705 mmHg 27%
    22:00 +26°C° 0 mm 3 mps 705 mmHg 30%
    23:00 +26°C° 0 mm 3 mps 706 mmHg 32%
    Mostrar más